Location: Hains Lake
(37.8540°N, 99.8578°W)
Time: 07:35:13
(UTC+00:00)

Transit 2A Rocket - Visible Passes

Search period start: 20 April 2021 00:00
Search period end: 30 April 2021 00:00
Orbit: 594 x 908 km, 66.7° (Epoch: 19 April)

Date Brightness Start Highest point End Pass type
(mag) Time Alt. Az. Time Alt. Az. Time Alt. Az.
20 Apr 7.8 06:15:47 10° N 06:15:55 11° N 06:15:55 11° N visible
21 Apr 7.6 05:33:49 10° N 05:34:16 12° N 05:34:16 12° N visible
23 Apr 7.5 05:50:11 10° NNW 05:50:57 15° NNW 05:50:57 15° NNW visible
24 Apr 7.1 05:07:58 10° N 05:09:22 17° N 05:09:22 17° N visible
25 Apr 7.1 04:26:11 10° N 04:27:49 15° NNE 04:27:49 15° NNE visible
25 Apr 7.6 06:07:19 10° NW 06:07:42 12° NW 06:07:42 12° NW visible
26 Apr 7.0 05:24:41 10° NNW 05:26:11 21° NNW 05:26:11 21° NNW visible
27 Apr 6.5 04:42:18 10° NNW 04:44:42 27° N 04:44:42 27° N visible
28 Apr 6.4 04:00:13 10° N 04:03:14 22° NE 04:03:14 22° NE visible
28 Apr 7.3 05:42:08 10° NW 05:43:08 16° NW 05:43:08 16° NW visible
29 Apr 6.8 03:18:40 10° NNE 03:20:59 14° NE 03:21:47 13° ENE visible
29 Apr 6.4 04:59:18 10° NNW 05:01:42 31° NW 05:01:42 31° NW visible
